Location: Asheville, NC
(35.6000°N, 82.5500°W)
Time: 05:22:25
(UTC-05:00)

AO-85 - Pass Details

Date: 14 February 2018
Orbit: 507 x 779 km, 64.8° (Epoch: 15 February)

Event Time Altitude Azimuth Distance (km) Brightness Sun altitude
Exits shadow 06:24:46 12° 246° (WSW) 1,643 ? -11.4°
Maximum altitude 06:27:56 31° 307° (NW) 991 ? -10.8°
Drops below altitude 10° 06:31:45 10° 10° (N) 1,910 ? -10.0°
Sets 06:34:17 0° 21° (NNE) 2,866 ? -9.5°
